Location: Arroyo Grande
(40.2671°N, 4.2512°W)
Time: 16:05:25
(UTC+00:00)

Okean 1-7 Rocket - Pass Details

Date: 03 February 2023
Orbit: 615 x 648 km, 82.5° (Epoch: 22 March)

Event Time Altitude Azimuth Distance (km) Brightness Sun altitude
Rises 19:23:51 0° 176° (S) 2,878 7.0 -20.5°
Reaches altitude 10° 19:26:05 10° 172° (S) 1,981 6.1 -20.9°
Enters shadow 19:29:24 45° 141° (SE) 850 4.0 -21.6°
